Location: Lake Almanor
(40.2485°N, 121.1442°W)
Time: 16:30:44
(UTC-08:00)

N. Korean satellite - Pass Details

Date: 25 January 2020
Orbit: 456 x 505 km, 97.2° (Epoch: 24 February)

Event Time Altitude Azimuth Distance (km) Brightness Sun altitude
Rises 05:35:32 0° 17° (NNE) 2,540 10.3 -19.9°
Reaches altitude 10° 05:37:38 10° 22° (NNE) 1,665 9.4 -19.5°
Maximum altitude 05:41:07 51° 99° (E) 622 7.5 -18.8°
Drops below altitude 10° 05:44:39 10° 177° (S) 1,678 9.4 -18.1°
Sets 05:46:46 0° 182° (S) 2,563 10.3 -17.7°
